Погода Земетчино

Погода Земетчино : погода сейчас, прогноз погоды и архив. Всё, что Вы хотите узнать о погоде Земетчино!

Поиск расширенной информации на нашем сайте:

Другие новости

Новости СМИ2

Главная страница сайта

Новости сайта

03.07.2017

Напоминаем, что на нашем специализированном сайте Метеоцентр.Азия вы можете получить высокодетализированные автоматические прогнозы погоды по пунктам России, СНГ и мира в авиационном формате (включающие направление и скорость ветра, видимость, явления погоды, количество и форму облачности, нижнюю и верхнюю границу облачности).

Рекомендуем: http://audiozakon.com.ua/ кзот украины 2015 на русском языке.

Погода Земетчино - сегодня

Время (UTC), дата Ветер
(°,м/с) 
Видим.   Явления Облачность Т
(°С)
Тd
(°С)
f(%) Тe
(°С)
Pmin
(гПа)
dP
(гПа)
Po
(мм)
O2
(г/м3)
Тmin Tmax R s Состояние
почвы
06 15.08.17 040 (СВ) 20000 м    8/5 600 м кучево-дожд., средняя, верхняя 
[Cb calv|Ac As|Ci fib]
+22.1 +16.7 71 +34  1019.6  753  277           
09 15.08.17 020 (С) 20000 м  {ливн. осадки}  8/3 600 м кучево-дожд., средняя 
[Cb calv|Ac As]
+22.8 +18.3 76 +38  1020.1  0.5  754  276           
12 15.08.17 010 (С) 20000 м  {ливн. осадки}  8/4 600 м кучево-дожд., средняя, верхняя 
[Cb calv|Ac As|Ci fib]
+23.8 +18.9 74 +40  1020.3  0.3  754  275           
15 15.08.17 010 (С) 20000 м    8/4 600 м кучево-дожд., средняя, верхняя 
[Cb calv|Ac As|Ci fib]
+22.8 +19.1 80 +39  1021.2  0.8  754  276    +25.6       
18 15.08.17 010 (С) 10 км    3/0 средняя 
[Ac trans]
+19.1 +17.7 92 +33  1022.9  1.5  756  281           
21 15.08.17 350 (С) 10 км    ясно 
+16.7 +16 96 +28  1023.7  0.6  756  284           
00 16.08.17 010 (С) 4000 м  дымка  9/0 средняя 
[Ac trans]
+16.6 +16 96 +27  1024  0.3  756  284           
03 16.08.17 050 (СВ) 20000 м    8/8 600 м кучево-дожд. 
[Cb calv]
+17.8 +17 95 +30  1024.8  0.8  757  283  +16.6        сухая 
06 16.08.17 060 (СВ) 20000 м    10/10 570 м кучево-дожд. 
[Cb calv]
+19.3 +17.1 87 +32  1025.6  758  281           
09 16.08.17 060 (СВ) 20000 м    9/0 средняя 
[Ac As]
+20.8 +17 79 +33  1026  0.5  758  280           
12 16.08.17 050 (СВ) 20000 м    8/5 600 м средняя 
[Cu med, cong|Ac trans]
+23.1 +16.3 66 +34  1025.8  0.1  758  278           
15 16.08.17 050 (СВ) 20000 м    3/3 600 м 
[Cu med, cong]
+22 +16.6 71 +33  1025.7  -0.2  758  279    +23.7       
18 16.08.17 320 (СЗ) 10 км    ясно 
+16.6 +15.2 91 +27  1026.2  0.2  758  285           
21 16.08.17 020 (С) 10 км    ясно 
+15.1 +13.8 92 +22  1026.5  0.2  758  287           
00 17.08.17 тихо ()   10 км    ясно 
+13.4 +12.8 96 +18  1026.9  0.3  758  289           
03 17.08.17 тихо ()   20000 м    8/3 600 м кучево-дожд., средняя, верхняя 
[Cb calv|Ac As|Ci fib]
+15.4 +14.2 93 +22  1027.4  0.6  759  286  +13.3        сухая 
06 17.08.17 070 (В) 20000 м    ясно 
+21 +15.9 73 +31  1027.2  0.2  759  281           
09 17.08.17 080 (В) 20000 м    6/6 600 м 
[Cu med, cong]
+25 +15.1 54 +34  1026.5  -0.5  758  277           
12 17.08.17 050 (СВ) 20000 м    3/3 600 м 
[Cu hum]
+25.7 +13.1 46 +31  1025.7  -0.8  758  277           
15 17.08.17 050 (СВ) 20000 м    ясно 
+24.1 +12.6 49 +29  1025.7  -0.8  758  278    +25.8       
18 17.08.17 020 (С) 10 км    ясно 
+17.6 +13.6 77 +25  1026  -0.8  758  284           
21 17.08.17 280 (З) 10 км    ясно 
+13.8 +12.5 92 +19  1026  -0.2  758  288           
00 18.08.17 340 (С) 10 км    ясно 
+12.9 +11.8 93 +17  1026.1  758  289           
03 18.08.17 тихо ()   20000 м    3/0 средняя 
[Ac trans]
+12.9 +12.2 96 +17  1026.6  0.5  758  289  +11.3        сухая 
06 18.08.17 160 (Ю) 20000 м    8/4 600 м средняя 
[Cu med, cong|Ac trans]
+21 +14.1 65 +28  1026.6  0.4  758  281           
Время (UTC), дата Ветер
(°,м/с) 
Видим.   Явления Облачность Т
(°С)
Тd
(°С)
f(%) Тe
(°С)
Pmin
(гПа)
dP
(гПа)
Po
(мм)
O2
(г/м3)
Тmin Tmax R s Состояние
почвы

Для получения пояснительной информации подведите курсор к названию столбца.

ПОГОДА Земетчино - архив

Всё, что Вы хотите узнать о погоде Земетчино - удобно и подробно!

Выберите нужную дату (начиная с 1 января 2015* года) и нажмите кнопку "Найти".
Будут отображены архивные сводки погоды по пункту Земетчино, начиная с указанной даты.


Отображать данные в формате CSV (для использования в таблицах Excel)


Внимание! Наш архив погоды предназначен исключительно для личного некоммерческого использования в познавательных целях. Если Вам необходимы официальные справки о состоянии погоды (для производственных, юридических, коммерческих и т.п. целей), обращайтесь в органы Росгидромета.

*Примечание: данная дата относится к архиву по метеостанциям СССР (Россия, СНГ, Балтия).
Архив по метеостанциям Зарубежной Европы и Азии (кроме Китая) хранится 10 дней, по другим регионам земного шара (Китай, Африка, Америка, Австралия, Океания) - 1 день.

Земетчино - район местоположения метеостанции


Название, широта, долгота, высота метеостанции:
Земетчино 53.5°ш. 42.6°д. 131 м над ур. моря [Российская Федерация]

Дополнительная информация

В oтличие oт бoльшинства пoгoдных сайтoв мы публикуем пoдрoбную метеoинфoрмацию в детальнoм прoфессиoнальнoм фoрмате.

Характеристики температуры и влажнoсти вoздуха измеряются на высoте 2 м в тени вдали oт зданий и деревьев.
Скoрoсть ветра измеряется на высoте 10 м (на урoвне рoста челoвека скoрoсть ветра ниже в 1.5-2 раза). Если метеoстанция нахoдится в гoрoде или в лесу, тo скoрoсть ветра занижена на 2-4 м/с пo сравнению с oткрытым местoм. Скoрoсть ветра над акватoриями крупных рек и oзёр, а также на вершинах хoлмoв на 2-5 м/с выше, чем в oбычных услoвиях.
Атмoсфернoе давление в разных тoчках местнoсти мoжет значительнo oтличаться oт давления на метеoстанции, в зависимoсти oт услoвий рельефа (при пoдъёме на 10 м давление пoнижается примернo на 1 мм рт.ст.).